• în Republica Moldova
  • Lista ţărilor
  • Pe 7 zile
  • Temperatura apei
  • Hartă satelitară
  • Meteo pe hartă
  • Widget-uri
  • user-avatar
    Intrare

    Meteo pe oră la Lubango

    Astăzi, 23 Iulie, Duminică

    Timp Temperatura Precipitaţii Vânt Presiune Umiditate
    00:00 +11°C° 0 mm 1 m/s 609 mmHg 70%
    01:00 +11°C° 0 mm 1 m/s 609 mmHg 67%
    02:00 +11°C° 0 mm 1 m/s 609 mmHg 63%
    03:00 +10°C° 0 mm 1 m/s 608 mmHg 59%
    04:00 +10°C° 0 mm 1 m/s 608 mmHg 55%
    05:00 +10°C° 0 mm 1 m/s 608 mmHg 51%
    06:00 +10°C° 0 mm 1 m/s 609 mmHg 46%
    07:00 +10°C° 0 mm 1 m/s 609 mmHg 42%
    08:00 +14°C° 0 mm 2 m/s 611 mmHg 33%
    09:00 +18°C° 0 mm 2 m/s 612 mmHg 23%
    10:00 +22°C° 0 mm 3 m/s 614 mmHg 14%
    11:00 +25°C° 0 mm 2 m/s 614 mmHg 13%
    12:00 +27°C° 0 mm 2 m/s 614 mmHg 11%
    13:00 +28°C° 0 mm 2 m/s 614 mmHg 10%
    14:00 +28°C° 0 mm 2 m/s 614 mmHg 10%
    15:00 +27°C° 0 mm 2 m/s 613 mmHg 11%
    16:00 +27°C° 0 mm 2 m/s 613 mmHg 12%
    17:00 +23°C° 0 mm 2 m/s 612 mmHg 20%
    18:00 +19°C° 0 mm 2 m/s 611 mmHg 28%
    19:00 +15°C° 0 mm 1 m/s 610 mmHg 36%
    20:00 +14°C° 0 mm 1 m/s 610 mmHg 40%
    21:00 +13°C° 0 mm 1 m/s 610 mmHg 44%
    22:00 +12°C° 0 mm 1 m/s 610 mmHg 48%
    23:00 +12°C° 0 mm 1 m/s 610 mmHg 47%

    Mâine, 24 Iulie, Luni

    Timp Temperatura Precipitaţii Vânt Presiune Umiditate
    00:00 +12°C° 0 mm 1 m/s 610 mmHg 46%
    01:00 +11°C° 0 mm 1 m/s 610 mmHg 45%
    02:00 +11°C° 0 mm 1 m/s 609 mmHg 44%
    03:00 +11°C° 0 mm 1 m/s 609 mmHg 43%
    04:00 +11°C° 0 mm 1 m/s 609 mmHg 42%
    05:00 +11°C° 0 mm 1 m/s 609 mmHg 39%
    06:00 +11°C° 0 mm 1 m/s 610 mmHg 36%
    07:00 +11°C° 0 mm 1 m/s 610 mmHg 33%
    08:00 +15°C° 0 mm 2 m/s 612 mmHg 26%
    09:00 +19°C° 0 mm 2 m/s 614 mmHg 19%
    10:00 +25°C° 0 mm 3 m/s 616 mmHg 11%
    11:00 +26°C° 0 mm 3 m/s 615 mmHg 10%
    12:00 +27°C° 0 mm 2 m/s 615 mmHg 9%
    13:00 +29°C° 0 mm 2 m/s 615 mmHg 8%
    14:00 +28°C° 0 mm 2 m/s 614 mmHg 9%
    15:00 +28°C° 0 mm 2 m/s 614 mmHg 9%
    16:00 +28°C° 0 mm 2 m/s 613 mmHg 10%
    17:00 +24°C° 0 mm 2 m/s 612 mmHg 17%
    18:00 +19°C° 0 mm 2 m/s 611 mmHg 24%
    19:00 +16°C° 0 mm 1 m/s 610 mmHg 31%
    20:00 +15°C° 0 mm 1 m/s 610 mmHg 33%
    21:00 +14°C° 0 mm 1 m/s 610 mmHg 36%
    22:00 +13°C° 0 mm 1 m/s 611 mmHg 39%
    23:00 +13°C° 0 mm 1 m/s 610 mmHg 38%

    Poimâine, 25 Iulie, Marţi

    Timp Temperatura Precipitaţii Vânt Presiune Umiditate
    00:00 +13°C° 0 mm 1 m/s 610 mmHg 38%
    01:00 +12°C° 0 mm 1 m/s 610 mmHg 37%
    02:00 +12°C° 0 mm 1 m/s 610 mmHg 35%
    03:00 +12°C° 0 mm 1 m/s 609 mmHg 33%
    04:00 +11°C° 0 mm 1 m/s 609 mmHg 31%
    05:00 +11°C° 0 mm 1 m/s 609 mmHg 29%
    06:00 +11°C° 0 mm 1 m/s 610 mmHg 27%
    07:00 +11°C° 0 mm 1 m/s 610 mmHg 26%
    08:00 +15°C° 0 mm 2 m/s 612 mmHg 21%
    09:00 +20°C° 0 mm 3 m/s 613 mmHg 16%
    10:00 +25°C° 0 mm 3 m/s 615 mmHg 11%
    11:00 +26°C° 0 mm 3 m/s 615 mmHg 10%
    12:00 +27°C° 0 mm 3 m/s 615 mmHg 9%
    13:00 +29°C° 0 mm 3 m/s 614 mmHg 8%
    14:00 +28°C° 0 mm 3 m/s 614 mmHg 9%
    15:00 +28°C° 0 mm 3 m/s 613 mmHg 9%
    16:00 +28°C° 0 mm 3 m/s 612 mmHg 9%
    17:00 +24°C° 0 mm 2 m/s 611 mmHg 15%
    18:00 +20°C° 0 mm 2 m/s 610 mmHg 21%
    19:00 +16°C° 0 mm 1 m/s 609 mmHg 27%
    20:00 +15°C° 0 mm 1 m/s 610 mmHg 28%
    21:00 +15°C° 0 mm 1 m/s 610 mmHg 29%
    22:00 +14°C° 0 mm 1 m/s 610 mmHg 31%
    23:00 +14°C° 0 mm 2 m/s 609 mmHg 29%

    26 Iulie, Miercuri

    Timp Temperatura Precipitaţii Vânt Presiune Umiditate
    00:00 +13°C° 0 mm 2 m/s 609 mmHg 27%
    01:00 +13°C° 0 mm 2 m/s 609 mmHg 26%
    02:00 +13°C° 0 mm 2 m/s 609 mmHg 25%
    03:00 +12°C° 0 mm 2 m/s 608 mmHg 24%
    04:00 +12°C° 0 mm 2 m/s 608 mmHg 23%
    05:00 +12°C° 0 mm 2 m/s 608 mmHg 22%
    06:00 +12°C° 0 mm 2 m/s 609 mmHg 22%
    07:00 +10°C° 0 mm 2 m/s 609 mmHg 21%
    08:00 +14°C° 0 mm 3 m/s 611 mmHg 18%
    09:00 +19°C° 0 mm 3 m/s 612 mmHg 15%
    10:00 +23°C° 0 mm 4 m/s 614 mmHg 11%
    11:00 +26°C° 0 mm 4 m/s 614 mmHg 11%
    12:00 +27°C° 0 mm 3 m/s 614 mmHg 10%
    13:00 +29°C° 0 mm 3 m/s 614 mmHg 9%
    14:00 +28°C° 0 mm 3 m/s 613 mmHg 9%
    15:00 +28°C° 0 mm 2 m/s 612 mmHg 10%
    16:00 +28°C° 0 mm 2 m/s 612 mmHg 11%
    17:00 +24°C° 0 mm 2 m/s 611 mmHg 17%
    18:00 +20°C° 0 mm 2 m/s 610 mmHg 24%
    19:00 +16°C° 0 mm 1 m/s 610 mmHg 30%
    20:00 +15°C° 0 mm 1 m/s 610 mmHg 33%
    21:00 +14°C° 0 mm 1 m/s 610 mmHg 36%
    22:00 +13°C° 0 mm 1 m/s 610 mmHg 39%
    23:00 +13°C° 0 mm 1 m/s 609 mmHg 37%

    27 Iulie, Joi

    Timp Temperatura Precipitaţii Vânt Presiune Umiditate
    00:00 +13°C° 0 mm 1 m/s 609 mmHg 36%
    01:00 +12°C° 0 mm 1 m/s 609 mmHg 34%
    02:00 +12°C° 0 mm 1 m/s 609 mmHg 32%
    03:00 +12°C° 0 mm 1 m/s 608 mmHg 30%
    04:00 +10°C° 0 mm 2 m/s 608 mmHg 28%
    05:00 +10°C° 0 mm 2 m/s 609 mmHg 29%
    06:00 +10°C° 0 mm 2 m/s 609 mmHg 31%
    07:00 +10°C° 0 mm 2 m/s 609 mmHg 32%
    08:00 +14°C° 0 mm 3 m/s 611 mmHg 27%
    09:00 +19°C° 0 mm 4 m/s 612 mmHg 23%
    10:00 +23°C° 0 mm 5 m/s 614 mmHg 18%
    11:00 +25°C° 0 mm 4 m/s 614 mmHg 16%
    12:00 +27°C° 0 mm 4 m/s 614 mmHg 14%
    13:00 +28°C° 0 mm 4 m/s 614 mmHg 13%
    14:00 +28°C° 0 mm 3 m/s 613 mmHg 14%
    15:00 +27°C° 0 mm 3 m/s 613 mmHg 15%
    16:00 +27°C° 0 mm 2 m/s 612 mmHg 16%
    17:00 +24°C° 0 mm 2 m/s 611 mmHg 25%
    18:00 +19°C° 0 mm 2 m/s 611 mmHg 34%
    19:00 +16°C° 0 mm 1 m/s 610 mmHg 43%
    20:00 +15°C° 0 mm 1 m/s 610 mmHg 48%
    21:00 +14°C° 0 mm 1 m/s 610 mmHg 52%
    22:00 +13°C° 0 mm 1 m/s 610 mmHg 56%
    23:00 +13°C° 0 mm 1 m/s 610 mmHg 56%

    28 Iulie, Vineri

    Timp Temperatura Precipitaţii Vânt Presiune Umiditate
    00:00 +12°C° 0 mm 1 m/s 609 mmHg 55%
    01:00 +12°C° 0 mm 1 m/s 609 mmHg 55%
    02:00 +12°C° 0 mm 1 m/s 609 mmHg 52%
    03:00 +11°C° 0 mm 1 m/s 609 mmHg 49%
    04:00 +11°C° 0 mm 1 m/s 608 mmHg 46%
    05:00 +11°C° 0 mm 1 m/s 609 mmHg 44%
    06:00 +10°C° 0 mm 2 m/s 609 mmHg 41%
    07:00 +10°C° 0 mm 2 m/s 609 mmHg 38%
    08:00 +14°C° 0 mm 3 m/s 611 mmHg 31%
    09:00 +19°C° 0 mm 4 m/s 612 mmHg 23%
    10:00 +23°C° 0 mm 4 m/s 614 mmHg 16%
    11:00 +25°C° 0 mm 4 m/s 614 mmHg 15%
    12:00 +27°C° 0 mm 4 m/s 614 mmHg 13%
    13:00 +28°C° 0 mm 4 m/s 614 mmHg 12%
    14:00 +28°C° 0 mm 3 m/s 613 mmHg 13%
    15:00 +28°C° 0 mm 3 m/s 613 mmHg 15%
    16:00 +27°C° 0 mm 2 m/s 612 mmHg 16%
    17:00 +24°C° 0 mm 2 m/s 612 mmHg 25%
    18:00 +19°C° 0 mm 2 m/s 611 mmHg 34%
    19:00 +16°C° 0 mm 1 m/s 610 mmHg 43%
    20:00 +15°C° 0 mm 1 m/s 610 mmHg 47%
    21:00 +14°C° 0 mm 1 m/s 610 mmHg 50%
    22:00 +13°C° 0 mm 1 m/s 610 mmHg 53%
    23:00 +13°C° 0 mm 1 m/s 610 mmHg 51%
    Arată mai mult